Location: Delia
(51.6321°N, 112.3740°W)
Time: 10:03:16
(UTC+00:00)

ISS - Pass Details

Date: 04 March 2024
Orbit: 413 x 419 km, 51.6° (Epoch: 13 April)

Event Time Altitude Azimuth Distance (km) Brightness Sun altitude
Exits shadow 12:50:53 21° 249° (WSW) 1,004 -2.4 -12.6°
Maximum altitude 12:52:12 28° 211° (SSW) 832 -2.6 -12.4°
Drops below altitude 10° 12:55:09 10° 151° (SSE) 1,513 -0.6 -11.9°
Sets 12:57:25 0° 139° (SE) 2,374 0.6 -11.6°
